Hourly Data Report for September 21, 2017

All times are specified in Local Standard Time (LST). Add 1 hour to adjust for Daylight Saving Time where and when it is observed.

ARVIAT A
NUNAVUT

61°05'38.000" N
94°04'18.000" W
10.40 m
2300427
71174
YEK

Download Data

Hourly Data (September 2017)
Hourly Data Report for September 21, 2017
Temp Definition
°C
Dew Point Temp Definition
°C
Rel Hum Definition
%
Wind Dir Definition
10's deg

Wind Spd Definition
km/h
Visibility Definition
km
Stn Press Definition
kPa
Hmdx Definition


Wind Chill Definition


Weather Definition


TIME
00:00 Legend Double Dagger 5.0 3.9 92 8 52 16.1 101.12     LegendNANA
01:00 Legend Double Dagger 5.2 4.0 92 8 52 16.1 101.05     LegendNANA
02:00 Legend Double Dagger 5.2 3.9 91 7 55 16.1 100.93     LegendNANA
03:00 Legend Double Dagger 5.3 4.1 92 7 45 16.1 100.87     LegendNANA
04:00 Legend Double Dagger 5.2 4.2 93 7 52 16.1 100.82     Rain
05:00 Legend Double Dagger 5.2 4.4 95 7 50 12.9 100.82     Rain
06:00 Legend Double Dagger 5.2 4.5 95 7 52 9.7 100.79     Rain,Fog
07:00 Legend Double Dagger 5.1 4.5 96 7 55 9.7 100.74     Rain,Fog
08:00 Legend Double Dagger 5.1 4.5 96 6 52 8.1 100.74     Rain,Fog
09:00 Legend Double Dagger 5.2 4.6 96 7 54 6.4 100.77     Rain,Fog
10:00 Legend Double Dagger 5.2 4.6 96 7 54 8.1 100.79     Rain,Fog
11:00 Legend Double Dagger 5.4 4.8 96 7 46 9.7 100.80     Rain,Fog
12:00 Legend Double Dagger 5.3 4.7 96 7 50 9.7 100.81     Rain,Fog
13:00 Legend Double Dagger 5.0 4.3 95 7 48 11.3 100.84     Rain
14:00 Legend Double Dagger 5.1 4.2 94 6 46 14.5 100.88     Rain
15:00 Legend Double Dagger 4.8 3.6 92 6 48 16.1 100.91     Rain
16:00 Legend Double Dagger 4.9 3.7 92 6 43 16.1 101.01     Rain
17:00 Legend Double Dagger 4.6 3.4 92 6 41 16.1 101.06     Rain
18:00 Legend Double Dagger 4.6 3.1 90 6 43 16.1 101.12     LegendNANA
19:00 Legend Double Dagger 4.3 3.1 92 6 41 8.1 101.18     Rain,Fog
20:00 Legend Double Dagger 4.2 3.0 92 6 45 14.5 101.21     LegendNANA
21:00 Legend Double Dagger 4.3 3.3 93 6 39 16.1 101.25     LegendNANA
22:00 Legend Double Dagger 4.2 2.9 91 6 46 9.7 101.27     Rain,Fog
23:00 Legend Double Dagger 4.2 3.0 92 5 43 16.1 101.29     Rain

Notes on Data Quality.

Legend

  • E = Estimated
  • M = Missing
  • NA = Not Available
  • ‡ = Partner data that is not subject to review by the National Climate Archives
Date modified: